Simultaneous Nadir Overpasses (SNOs) Predictions

Prediction of SNOs between AQUA and METOP-B Satellite Orbit:

Table of predicted SNOs for the next 14.0 days since TLE Epoch: 11/3/2012
Index Date (AQUA) Time (AQUA) AQUA Lat,Lon Date (METOP-B) Time (METOP-B) METOP-B Lat,Lon Distance(km) Time Diff (sec)
1 11/04/2012 12:55:37 73.18, -18.44 11/04/2012 12:54:30 73.15, -20.85 77.62 67
2 11/04/2012 13:45:14 -73.78, 147.93 11/04/2012 13:44:59 -73.79, 147.95 1.21 15
3 11/04/2012 14:34:43 73.86, -44.61 11/04/2012 14:35:38 73.83, -44.62 3.40 55
4 11/07/2012 08:29:54 73.75, 46.82 11/07/2012 08:28:44 73.73, 46.88 3.26 70
5 11/07/2012 09:19:20 -73.78,-145.59 11/07/2012 09:19:25 -73.78,-145.67 2.35 5
6 11/07/2012 10:08:50 73.92, 21.73 11/07/2012 10:10:02 73.91, 21.98 7.63 72
7 11/10/2012 04:03:56 73.75, 113.31 11/10/2012 04:03:08 73.76, 113.35 1.23 48
8 11/10/2012 04:53:23 -73.83, -79.21 11/10/2012 04:53:49 -73.81, -79.19 1.68 26
9 11/12/2012 23:37:56 73.75, 179.82 11/12/2012 23:37:33 73.78, 179.80 3.19 23
10 11/13/2012 00:27:23 -73.82, -12.69 11/13/2012 00:28:14 -73.84, -12.72 2.48 51
11 11/15/2012 18:22:26 -73.74, 78.72 11/15/2012 18:21:20 -73.73, 78.77 1.51 66
12 11/15/2012 19:11:54 73.79,-113.76 11/15/2012 19:11:58 73.79,-113.76 0.25 4




NCC Satellite Simultaneous Nadir Overpasses (SNOs) Prediction Service
